Content
SEND FEEDBACK

Daily
Averages
Monthly
Summary
Austria

INNSBRUCK, AUSTRIA


Home > Europe > Austria
Elevation: 1994 feet     Latitude: 47 15N     Longitude: 011 20E

WEATHER
 
SELECT A DAY
Number of Records: 319,203;   Date Range: 7/1/96 - 11/25/14
 
SHARE

PRINT THIS DATA

[ ← Previous Day ]
WEATHER ALMANAC - APRIL 21, 2013
[ Next Day → ]
[ °C ]   °F
Weather ElementAverageHighLow
Temperature52.9 °F69.8 °F (2:50 pm)39.2 °F (4:20 am)
Dewpoint42 °F51.8 °F (1:20 pm)32 °F (4:50 pm)
Humidity71.7 %100 % (12:50 am)16 % (5:00 pm)
Barometer29.98 in30.13 in (2:00 am)29.81 in (5:00 pm)
Wind Speed4.1 mph17.3 mph (6:50 pm)
Weather ElementAverage
Visibility7 mi
Wind DirectionENE (55.3 °)

Weather ElementTotal
Precipitation---
Heating Degree Days10.5 (Base 65)
Growing Degree Days4.5 (Base 50)
Averaged from 55 records on April 21, 2013
WEATHER CONDITIONS BREAKOUT
WIND DIRECTION BREAKOUT
WEATHER BY HOUR - APRIL 21, 2013
[ °C ]   °F
Local TimeTemperatureDewpointHumidityBarometerVisibilityWind DirectionWind SpeedGust SpeedPrecipitationEventsConditions
12:50 AM41.0 °F41.0 °F100 %30.09 in3.7 miVariable1.2 mphPartly Cloudy
1:20 AM41.0 °F41.0 °F100 %30.06 in0.4 miVariable1.2 mphFogPatches of Fog
1:50 AM41.0 °F41.0 °F100 %30.06 in3.7 miVariable2.3 mphFogPatches of Fog
2:00 AM41.0 °F41.0 °F98 %30.13 in4.0 mi°2.2 mph
2:20 AM41.0 °F39.2 °F93 %30.06 in4.3 miVariable1.2 mphPartly Cloudy
2:50 AM41.0 °F41.0 °F100 %30.06 inWSW (250°)3.5 mphMostly Cloudy
3:20 AM41.0 °F41.0 °F100 %30.06 in5.6 miWSW (250°)3.5 mphMostly Cloudy
3:50 AM41.0 °F39.2 °F93 %30.06 in6.2 miVariable1.2 mphScattered Clouds
4:20 AM39.2 °F39.2 °F100 %30.04 in6.2 miVariable1.2 mphScattered Clouds
4:50 AM41.0 °F39.2 °F93 %30.04 in6.2 miVariable1.2 mphMostly Cloudy
5:00 AM40.0 °F40.0 °F99 %30.11 in9.0 mi°2.2 mphScattered Clouds
5:20 AM39.2 °F39.2 °F100 %30.04 in6.2 miWest (270°)4.6 mphMostly Cloudy
5:50 AM39.2 °F39.2 °F100 %30.04 in6.2 miVariable2.3 mphMostly Cloudy
6:20 AM39.2 °F39.2 °F100 %30.04 in6.2 miVariable1.2 mphScattered Clouds
6:50 AM39.2 °F39.2 °F100 %30.04 in6.2 miVariable2.3 mphMostly Cloudy
7:20 AM41.0 °F41.0 °F100 %30.06 in6.2 miVariable2.3 mphMostly Cloudy
7:50 AM41.0 °F41.0 °F100 %30.06 in6.2 miVariable2.3 mphMostly Cloudy
8:00 AM41.0 °F40.0 °F96 %30.11 in9.0 mi°2.2 mphScattered Clouds
8:20 AM42.8 °F41.0 °F93 %30.06 in6.2 miVariable1.2 mphMostly Cloudy
8:50 AM44.6 °F41.0 °F87 %30.06 in6.2 miVariable2.3 mphMostly Cloudy
9:20 AM44.6 °F41.0 °F87 %30.04 in6.2 miVariable2.3 mphScattered Clouds
9:50 AM48.2 °F42.8 °F82 %30.04 in6.2 miWest (280°)3.5 mphScattered Clouds
10:20 AM50.0 °F42.8 °F76 %30.04 in6.2 miWSW (250°)3.5 mphScattered Clouds
10:50 AM51.8 °F42.8 °F71 %30.01 in6.2 miVariable2.3 mphPartly Cloudy
11:00 AM52.0 °F44.0 °F64 %30.02 in16.0 mi°2.2 mphScattered Clouds
11:20 AM53.6 °F44.6 °F72 %30.01 in6.2 miWest (280°)3.5 mphScattered Clouds
11:50 AM57.2 °F46.4 °F67 %29.98 in6.2 miVariable2.3 mphScattered Clouds
12:20 PM57.2 °F46.4 °F67 %29.98 in6.2 miVariable2.3 mphScattered Clouds
12:50 PM60.8 °F48.2 °F63 %29.95 in6.2 miVariable1.2 mphScattered Clouds
1:20 PM64.4 °F51.8 °F64 %29.95 in6.2 miVariable1.2 mphScattered Clouds
1:50 PM68.0 °F44.6 °F43 %29.92 in6.2 miVariable5.8 mphScattered Clouds
2:00 PM67.0 °F45.0 °F34 %29.87 in19.0 mi°6.7 mphScattered Clouds
2:20 PM68.0 °F41.0 °F37 %29.92 in6.2 miNE (50°)8.1 mphScattered Clouds
2:50 PM69.8 °F37.4 °F31 %29.92 in6.2 miVariable8.1 mphMostly Cloudy
3:20 PM69.8 °F35.6 °F28 %29.89 in6.2 miSE (130°)5.8 mphScattered Clouds
3:50 PM69.8 °F39.2 °F33 %29.89 in6.2 miVariable4.6 mphScattered Clouds
4:20 PM69.8 °F35.6 °F28 %29.89 in6.2 miVariable6.9 mphScattered Clouds
4:50 PM69.8 °F32.0 °F25 %29.86 in6.2 miVariable4.6 mphScattered Clouds
5:00 PM69.0 °F33.0 °F16 %29.81 in19.0 mi°4.5 mphScattered Clouds
5:20 PM69.8 °F37.4 °F31 %29.86 in6.2 miVariable4.6 mphScattered Clouds
5:50 PM69.8 °F37.4 °F31 %29.86 in6.2 miSW (220°)3.5 mphScattered Clouds
6:20 PM68.0 °F33.8 °F28 %29.86 in6.2 miSouth (180°)4.6 mphScattered Clouds
6:50 PM62.6 °F48.2 °F59 %29.86 in6.2 miNE (50°)17.3 mphScattered Clouds
7:20 PM60.8 °F48.2 °F63 %29.86 in6.2 miENE (70°)17.3 mphScattered Clouds
7:50 PM59.0 °F48.2 °F67 %29.89 in6.2 miNE (50°)9.2 mphScattered Clouds
8:00 PM58.0 °F48.0 °F59 %29.88 in19.0 miNE (50°)8.9 mphScattered Clouds
8:20 PM57.2 °F48.2 °F72 %29.92 in6.2 miENE (70°)6.9 mphScattered Clouds
8:50 PM57.2 °F46.4 °F67 %29.92 in6.2 miEast (90°)8.1 mphMostly Cloudy
9:20 PM55.4 °F44.6 °F67 %29.95 in6.2 miVariable3.5 mphMostly Cloudy
9:50 PM53.6 °F44.6 °F72 %29.95 in6.2 miVariable2.3 mphMostly Cloudy
10:20 PM53.6 °F46.4 °F77 %29.98 in6.2 miENE (70°)4.6 mphMostly Cloudy
10:50 PM51.8 °F46.4 °F82 %29.98 in6.2 miNE (50°)4.6 mphMostly Cloudy
11:00 PM52.0 °F46.0 °F74 %29.98 in12.0 miNE (50°)4.5 mphScattered Clouds
11:20 PM51.8 °F44.6 °F76 %29.98 in6.2 miVariable2.3 mphMostly Cloudy
11:50 PM51.8 °F44.6 °F76 %29.98 in6.2 miVariable1.2 mphMostly Cloudy
Hourly data recorded from LOWI, located miles away from Innsbruck, Austria







STORIES FROM OUR PARTNERS